Location: Chevoux
(46.3801°N, 4.9476°E)
Time: 03:55:18
(UTC+00:00)

Envisat - Pass Details

Date: 08 December 2021
Orbit: 764 x 766 km, 98.2° (Epoch: 16 January)

Event Time Altitude Azimuth Distance (km) Brightness Sun altitude
Rises 06:21:52 0° 359° (N) 3,244 6.0 -8.2°
Reaches altitude 10° 06:24:59 10° 339° (NNW) 2,313 5.1 -7.7°
Maximum altitude 06:28:01 16° 302° (WNW) 1,910 4.4 -7.2°
Drops below altitude 10° 06:31:04 10° 265° (W) 2,303 5.0 -6.8°
Sets 06:34:10 0° 245° (WSW) 3,224 5.9 -6.3°
